EZS129 LSZH-LOWG

Flight info

Callsign EZS129
Flight time 0h 50m
Altitude 33000
Route DEGES Z2 UMVEG DCT NAKUM DCT ABIRI ABIRI2M
Aircraft A320/M-SDE3FGHIRWY/LB1

Departure

Time 2026-05-08 18:55
Airport Zürich Airport (LSZH)

Arrival

Time 2026-05-08 19:46
Airport Graz Airport (LOWG)
Time Latitude Longitude Altitude Speed Heading
2026-05-08 18:38 47.46159 8.55780 1401 ft 0 kts 186°
2026-05-08 18:47 47.46161 8.55781 1397 ft 2 kts 186°
2026-05-08 18:48 47.46187 8.55782 1400 ft 4 kts 174°
2026-05-08 18:48 47.46213 8.55774 1404 ft 4 kts 156°
2026-05-08 18:48 47.46234 8.55754 1399 ft 4 kts 120°
2026-05-08 18:48 47.46239 8.55737 1402 ft 0 kts 96°
2026-05-08 18:51 47.46234 8.55807 1398 ft 15 kts 96°
2026-05-08 18:51 47.46218 8.55970 1406 ft 7 kts 109°
2026-05-08 18:51 47.46193 8.56024 1404 ft 5 kts 135°
2026-05-08 18:51 47.46170 8.56052 1403 ft 5 kts 140°
2026-05-08 18:52 47.46138 8.56090 1402 ft 8 kts 140°
2026-05-08 18:52 47.46088 8.56159 1408 ft 11 kts 134°
2026-05-08 18:52 47.46018 8.56267 1406 ft 18 kts 136°
2026-05-08 18:52 47.45910 8.56399 1407 ft 23 kts 142°
2026-05-08 18:53 47.45802 8.56580 1405 ft 24 kts 111°
2026-05-08 18:53 47.45780 8.56837 1396 ft 26 kts 98°
2026-05-08 18:53 47.45728 8.57026 1403 ft 16 kts 155°
2026-05-08 18:53 47.45667 8.56966 1401 ft 9 kts 263°
2026-05-08 18:54 47.45668 8.56926 1399 ft 0 kts 274°
2026-05-08 18:54 47.45668 8.56925 1399 ft 3 kts 274°
2026-05-08 18:54 47.45701 8.56444 1399 ft 86 kts 276°
2026-05-08 18:54 47.45786 8.55245 1395 ft 147 kts 276°
2026-05-08 18:55 47.46011 8.51535 2091 ft 198 kts 276°
2026-05-08 18:55 47.46132 8.49435 2654 ft 213 kts 276°
2026-05-08 18:55 47.45982 8.47228 3264 ft 223 kts 244°
2026-05-08 18:56 47.44999 8.45450 4007 ft 226 kts 222°
2026-05-08 18:56 47.43952 8.43709 4813 ft 229 kts 239°
2026-05-08 18:56 47.43353 8.41519 5594 ft 232 kts 252°
2026-05-08 18:56 47.42885 8.39226 6397 ft 234 kts 252°
2026-05-08 18:57 47.42084 8.37133 6857 ft 237 kts 221°
2026-05-08 18:57 47.41178 8.36265 6943 ft 235 kts 199°
2026-05-08 18:57 47.39062 8.36280 6999 ft 232 kts 155°
2026-05-08 18:57 47.37813 8.37759 7502 ft 235 kts 124°
2026-05-08 18:58 47.37238 8.40005 8258 ft 239 kts 92°
2026-05-08 18:58 47.37588 8.42387 8960 ft 243 kts 58°
2026-05-08 18:58 47.38797 8.44109 9693 ft 246 kts 25°
2026-05-08 18:58 47.40371 8.45148 10378 ft 251 kts 26°
2026-05-08 18:59 47.41803 8.46713 10961 ft 263 kts 45°
2026-05-08 18:59 47.43011 8.48991 11263 ft 287 kts 53°
2026-05-08 18:59 47.44173 8.51339 11524 ft 309 kts 53°
2026-05-08 18:59 47.45299 8.54169 11744 ft 333 kts 68°
2026-05-08 19:00 47.45847 8.57596 11939 ft 355 kts 86°
2026-05-08 19:00 47.45982 8.61401 12101 ft 377 kts 88°
2026-05-08 19:00 47.46110 8.65329 12575 ft 386 kts 88°
2026-05-08 19:00 47.46245 8.69317 13227 ft 391 kts 88°
2026-05-08 19:01 47.46387 8.73355 13879 ft 396 kts 88°
2026-05-08 19:01 47.46536 8.77436 14492 ft 400 kts 88°
2026-05-08 19:01 47.46606 8.81558 15084 ft 403 kts 94°
2026-05-08 19:01 47.46247 8.85610 15650 ft 405 kts 103°
2026-05-08 19:02 47.45669 8.89690 16197 ft 409 kts 99°
2026-05-08 19:02 47.45577 8.93912 16753 ft 413 kts 88°
2026-05-08 19:02 47.45689 8.98171 17285 ft 417 kts 88°
2026-05-08 19:02 47.45811 9.02472 17834 ft 420 kts 88°
2026-05-08 19:03 47.45937 9.06804 18364 ft 424 kts 88°
2026-05-08 19:03 47.46064 9.11174 18811 ft 427 kts 88°
2026-05-08 19:03 47.46187 9.15574 19278 ft 430 kts 88°
2026-05-08 19:03 47.46303 9.20011 19740 ft 433 kts 88°
2026-05-08 19:04 47.46418 9.24471 20233 ft 435 kts 88°
2026-05-08 19:04 47.46533 9.28951 20698 ft 438 kts 88°
2026-05-08 19:04 47.46647 9.33466 21147 ft 441 kts 89°
2026-05-08 19:04 47.46757 9.38004 21582 ft 444 kts 89°
2026-05-08 19:05 47.46866 9.42574 22013 ft 447 kts 89°
2026-05-08 19:05 47.46974 9.47180 22429 ft 449 kts 89°
2026-05-08 19:05 47.47079 9.51811 22835 ft 452 kts 89°
2026-05-08 19:05 47.47186 9.56467 23224 ft 455 kts 89°
2026-05-08 19:06 47.47213 9.61153 23609 ft 457 kts 94°
2026-05-08 19:06 47.46972 9.65846 23931 ft 459 kts 95°
2026-05-08 19:06 47.46717 9.70564 24256 ft 462 kts 95°
2026-05-08 19:06 47.46455 9.75316 24579 ft 465 kts 95°
2026-05-08 19:07 47.46188 9.80092 24902 ft 468 kts 96°
2026-05-08 19:07 47.45918 9.84897 25210 ft 470 kts 96°
2026-05-08 19:07 47.45646 9.89721 25492 ft 473 kts 96°
2026-05-08 19:07 47.45371 9.94580 25796 ft 475 kts 96°
2026-05-08 19:08 47.45094 9.99458 26095 ft 478 kts 96°
2026-05-08 19:08 47.44813 10.04372 26375 ft 480 kts 96°
2026-05-08 19:08 47.44527 10.09293 26704 ft 481 kts 96°
2026-05-08 19:08 47.44237 10.14228 27002 ft 483 kts 96°
2026-05-08 19:09 47.43878 10.19173 27280 ft 485 kts 101°
2026-05-08 19:09 47.43243 10.24058 27588 ft 485 kts 102°
2026-05-08 19:09 47.42585 10.28946 27989 ft 485 kts 103°
2026-05-08 19:09 47.41924 10.33820 28391 ft 484 kts 103°
2026-05-08 19:10 47.41260 10.38699 28781 ft 484 kts 103°
2026-05-08 19:10 47.40598 10.43569 29178 ft 484 kts 103°
2026-05-08 19:10 47.39938 10.48432 29604 ft 483 kts 103°
2026-05-08 19:10 47.39279 10.53276 30066 ft 481 kts 103°
2026-05-08 19:11 47.38615 10.58106 30417 ft 480 kts 103°
2026-05-08 19:11 47.37949 10.62927 30741 ft 480 kts 103°
2026-05-08 19:11 47.37279 10.67764 31042 ft 481 kts 103°
2026-05-08 19:11 47.36617 10.72523 31335 ft 481 kts 103°
2026-05-08 19:12 47.35939 10.77366 31647 ft 482 kts 103°
2026-05-08 19:12 47.35259 10.82204 31947 ft 482 kts 103°
2026-05-08 19:12 47.34575 10.87053 32247 ft 483 kts 103°
2026-05-08 19:12 47.33894 10.91890 32591 ft 482 kts 103°
2026-05-08 19:13 47.33212 10.96725 32905 ft 482 kts 103°
2026-05-08 19:13 47.32527 11.01570 33018 ft 485 kts 103°
2026-05-08 19:13 47.31835 11.06441 33031 ft 486 kts 103°
2026-05-08 19:14 47.30439 11.16210 33032 ft 487 kts 103°
2026-05-08 19:14 47.29028 11.25965 33023 ft 487 kts 104°
2026-05-08 19:15 47.27611 11.35669 33026 ft 484 kts 104°
2026-05-08 19:15 47.26203 11.45352 33030 ft 484 kts 104°
2026-05-08 19:16 47.24837 11.55046 33029 ft 484 kts 102°
2026-05-08 19:16 47.23766 11.64844 33022 ft 485 kts 100°
2026-05-08 19:17 47.22810 11.74651 33029 ft 484 kts 101°
2026-05-08 19:17 47.21777 11.84421 33035 ft 483 kts 102°
2026-05-08 19:18 47.20667 11.92438 33038 ft 480 kts 108°
2026-05-08 19:18 47.18877 12.01915 33053 ft 481 kts 108°
2026-05-08 19:19 47.17102 12.11392 33047 ft 480 kts 108°
2026-05-08 19:19 47.15322 12.20857 33064 ft 481 kts 108°
2026-05-08 19:20 47.13520 12.30318 33054 ft 481 kts 108°
2026-05-08 19:20 47.11720 12.39776 33048 ft 481 kts 108°
2026-05-08 19:21 47.09917 12.49229 33061 ft 481 kts 108°
2026-05-08 19:21 47.08098 12.58669 33078 ft 481 kts 108°
2026-05-08 19:22 47.06277 12.68092 33090 ft 480 kts 108°
2026-05-08 19:22 47.04451 12.77508 33090 ft 479 kts 108°
2026-05-08 19:23 47.02624 12.86900 33100 ft 478 kts 109°
2026-05-08 19:23 47.00792 12.96249 33104 ft 477 kts 109°
2026-05-08 19:24 46.98950 13.05563 33074 ft 475 kts 109°
2026-05-08 19:24 46.98028 13.10212 32811 ft 475 kts 109°
2026-05-08 19:24 46.97108 13.14858 32541 ft 475 kts 109°
2026-05-08 19:24 46.96186 13.19506 32279 ft 475 kts 109°
2026-05-08 19:25 46.95262 13.24152 32010 ft 476 kts 109°
2026-05-08 19:25 46.94336 13.28800 31741 ft 476 kts 109°
2026-05-08 19:25 46.93408 13.33449 31503 ft 477 kts 109°
2026-05-08 19:25 46.92486 13.38051 30843 ft 475 kts 109°
2026-05-08 19:26 46.91544 13.42729 29920 ft 476 kts 109°
2026-05-08 19:26 46.90603 13.47395 28949 ft 478 kts 108°
2026-05-08 19:26 46.89662 13.52049 28628 ft 479 kts 108°
2026-05-08 19:26 46.88715 13.56730 28357 ft 481 kts 108°
2026-05-08 19:27 46.87762 13.61419 28073 ft 481 kts 109°
2026-05-08 19:27 46.86808 13.66101 27806 ft 481 kts 109°
2026-05-08 19:27 46.85850 13.70791 27535 ft 482 kts 109°
2026-05-08 19:27 46.84893 13.75476 26826 ft 481 kts 108°
2026-05-08 19:28 46.83943 13.80133 25541 ft 473 kts 108°
2026-05-08 19:28 46.83014 13.84682 24340 ft 462 kts 108°
2026-05-08 19:28 46.82100 13.89124 23127 ft 452 kts 108°
2026-05-08 19:28 46.81199 13.93485 22020 ft 447 kts 108°
2026-05-08 19:29 46.80302 13.97821 21205 ft 445 kts 108°
2026-05-08 19:29 46.79404 14.02139 20384 ft 444 kts 108°
2026-05-08 19:29 46.78507 14.06433 19563 ft 442 kts 108°
2026-05-08 19:29 46.77611 14.10725 18757 ft 441 kts 107°
2026-05-08 19:30 46.76717 14.15005 17908 ft 441 kts 107°
2026-05-08 19:30 46.75829 14.19263 17133 ft 437 kts 107°
2026-05-08 19:30 46.74948 14.23484 16379 ft 433 kts 107°
2026-05-08 19:30 46.74071 14.27665 15656 ft 429 kts 107°
2026-05-08 19:31 46.73237 14.31813 14954 ft 425 kts 103°
2026-05-08 19:31 46.72791 14.36046 14272 ft 421 kts 94°
2026-05-08 19:31 46.72832 14.40288 13599 ft 417 kts 85°
2026-05-08 19:31 46.73107 14.44461 12965 ft 411 kts 84°
2026-05-08 19:32 46.73368 14.48575 12329 ft 405 kts 85°
2026-05-08 19:32 46.73617 14.52634 11697 ft 399 kts 85°
2026-05-08 19:32 46.73859 14.56612 11362 ft 386 kts 85°
2026-05-08 19:32 46.74089 14.60428 11233 ft 369 kts 85°
2026-05-08 19:33 46.74308 14.64070 11108 ft 353 kts 85°
2026-05-08 19:33 46.74517 14.67561 10983 ft 338 kts 85°
2026-05-08 19:33 46.74719 14.70910 10859 ft 326 kts 85°
2026-05-08 19:33 46.74913 14.74097 10736 ft 314 kts 85°
2026-05-08 19:34 46.75103 14.77253 10607 ft 303 kts 85°
2026-05-08 19:34 46.75281 14.80239 10378 ft 297 kts 85°
2026-05-08 19:34 46.75455 14.83210 10241 ft 292 kts 85°
2026-05-08 19:34 46.75625 14.86152 10177 ft 291 kts 85°
2026-05-08 19:35 46.75795 14.89093 10075 ft 291 kts 85°
2026-05-08 19:35 46.75967 14.92041 9649 ft 294 kts 85°
2026-05-08 19:35 46.76164 14.94993 9301 ft 290 kts 80°
2026-05-08 19:35 46.76737 14.97807 8891 ft 289 kts 65°
2026-05-08 19:36 46.77712 15.00322 8769 ft 284 kts 59°
2026-05-08 19:36 46.78722 15.02797 8706 ft 284 kts 59°
2026-05-08 19:36 46.79720 15.05281 8641 ft 284 kts 59°
2026-05-08 19:36 46.80711 15.07769 8538 ft 284 kts 60°
2026-05-08 19:37 46.81704 15.10263 8451 ft 284 kts 60°
2026-05-08 19:37 46.82698 15.12759 8352 ft 284 kts 60°
2026-05-08 19:37 46.83694 15.15251 8243 ft 284 kts 60°
2026-05-08 19:37 46.84688 15.17734 8133 ft 283 kts 60°
2026-05-08 19:38 46.85683 15.20218 8024 ft 283 kts 60°
2026-05-08 19:38 46.86672 15.22689 7912 ft 277 kts 60°
2026-05-08 19:38 46.87624 15.25062 7809 ft 265 kts 60°
2026-05-08 19:38 46.88532 15.27330 7716 ft 252 kts 60°
2026-05-08 19:39 46.89297 15.29562 7613 ft 241 kts 76°
2026-05-08 19:39 46.89301 15.31946 7523 ft 236 kts 107°
2026-05-08 19:39 46.88474 15.33997 7294 ft 238 kts 138°
2026-05-08 19:39 46.87030 15.35118 6970 ft 237 kts 166°
2026-05-08 19:40 46.85427 15.35653 6690 ft 235 kts 167°
2026-05-08 19:40 46.83856 15.36170 6557 ft 228 kts 167°
2026-05-08 19:40 46.82315 15.36681 6219 ft 229 kts 167°
2026-05-08 19:40 46.80793 15.37358 5860 ft 229 kts 149°
2026-05-08 19:41 46.79680 15.38937 5444 ft 224 kts 118°
2026-05-08 19:41 46.79313 15.41125 5058 ft 225 kts 87°
2026-05-08 19:41 46.79766 15.43286 4755 ft 226 kts 60°
2026-05-08 19:41 46.80570 15.45261 4415 ft 226 kts 60°
2026-05-08 19:42 46.81581 15.47001 4109 ft 227 kts 36°
2026-05-08 19:42 46.83015 15.47917 3799 ft 227 kts 11°
2026-05-08 19:42 46.84590 15.47946 3548 ft 226 kts 351°
2026-05-08 19:42 46.86093 15.47552 3408 ft 214 kts 349°
2026-05-08 19:43 46.87499 15.47154 3153 ft 199 kts 349°
2026-05-08 19:43 46.88805 15.46792 2900 ft 184 kts 349°
2026-05-08 19:43 46.90030 15.46456 2661 ft 174 kts 350°
2026-05-08 19:43 46.91171 15.46143 2444 ft 160 kts 350°
2026-05-08 19:44 46.92243 15.45849 2235 ft 154 kts 350°
2026-05-08 19:44 46.93287 15.45562 2036 ft 151 kts 350°
2026-05-08 19:44 46.94310 15.45282 1833 ft 148 kts 350°
2026-05-08 19:44 46.95320 15.45004 1638 ft 146 kts 350°
2026-05-08 19:45 46.96314 15.44731 1440 ft 144 kts 350°
2026-05-08 19:45 46.97294 15.44462 1252 ft 143 kts 350°
2026-05-08 19:45 46.98259 15.44197 1099 ft 136 kts 349°
2026-05-08 19:45 46.99027 15.43984 1102 ft 88 kts 349°
2026-05-08 19:46 46.99428 15.43876 1106 ft 29 kts 349°
2026-05-08 19:46 46.99592 15.43841 1112 ft 22 kts
2026-05-08 19:46 46.99880 15.43940 1107 ft 14 kts 29°
2026-05-08 19:47 46.99932 15.44050 1115 ft 14 kts 77°
2026-05-08 19:47 46.99874 15.44150 1112 ft 14 kts 161°
2026-05-08 19:47 46.99804 15.44180 1109 ft 9 kts 141°
2026-05-08 19:47 46.99785 15.44257 1112 ft 7 kts 92°
2026-05-08 19:48 46.99780 15.44316 1111 ft 4 kts 120°
2026-05-08 19:48 46.99760 15.44330 1108 ft 3 kts 164°
2026-05-08 19:48 46.99750 15.44333 1110 ft 0 kts 168°